STARLINK-1079 (44937 NORAD) Tracking and Keplerian Element Data

This shows tracking and keplerian element data for the satellite.

Feedback or suggestion? Click here.




ElementValue
Catalog44937
NameSTARLINK-1079
Epoch Orbit178
Epoch Day52.91667824
Epoch Year2020
RAAN168.8907
Inclination52.9958
Eccentricity0.0001632
Argument of Perigee6.376
Mean Anonmoly17.8378
Mean Motion15.73165145
Decay Rate0.00098155
L11 44937U 20001Z 20052.91667824 .00098155 00000-0 69650-3 0 9999
L22 44937 52.9958 168.8907 0001632 6.3760 17.8378 15.73165145 1788

Live tracking and technical data element details for STARLINK-1079 (NORAD 44937). STARLINK-1079 can be tracked NOW for your location showing map with azimuth and elevation plus other details from your city location.

Track the satellite on the map from your city or location and see movement details for azimuth, elevation, latitude, longitude, range, height, and movement on the map or in text.







IsCatalogInMostPopularTable: catalog: 44937, numindb: 11
Update: records affected: 1



GetName: 44937 STARLINK-1079

Hit Count: updated at: Mon, 24 Feb 2020 18:25:33 GMT